RH
85 83 83 80 79 78 76 72 71 69 68 66 63 62 61 58 54 50 47 44 41 37 33 33 34 34 34 33 33 34 36 36 35 35 35 37 39 41 42 43 44 44 44 46 48 50 51 52 54 56 56 55 55 56 57 58 56 54 54 54 55 56 56 50 44 41 39 40 43 45 49 49 48 50 53 52 51 48 45 45 44 41 39 40 43
83 81 81 79 76 73 71 69 68 66 64 62 61 61 58 53 48 45 43 41 38 34 33 35 35 33 32 31 32 32 34 35 35 34 35 36 39 41 42 43 43 44 44 45 46 48 50 51 53 53 53 53 54 54 55 56 56 55 53 53 54 55 56 50 43 42 41 39 40 42 48 50 51 52 52 52 52 48 43 43 45 43 41 42 45
82 81 78 77 74 68 66 66 66 65 63 60 58 57 53 48 44 42 41 39 34 33 35 34 32 30 30 31 31 32 33 34 35 34 34 36 39 41 42 43 43 43 43 45 46 47 51 53 52 51 52 55 56 57 56 56 57 56 54 53 54 55 55 50 42 41 43 42 39 40 45 49 55 58 55 54 52 48 44 43 45 42 41 42 44
80 78 76 75 71 67 65 65 65 65 62 58 55 53 49 44 41 40 39 36 34 35 35 32 30 30 31 31 32 32 33 34 35 34 34 36 39 41 42 43 43 42 43 44 46 49 52 50 49 51 53 56 58 59 59 58 57 56 55 54 53 54 53 49 43 39 42 44 41 39 42 49 56 59 58 56 52 48 45 42 42 41 40 40 42
77 75 75 73 70 67 64 63 63 62 59 56 52 48 45 41 39 39 37 34 34 35 32 30 30 31 32 33 34 34 34 35 35 35 35 38 40 42 42 43 42 42 42 43 47 50 48 47 50 53 53 54 56 58 59 59 57 56 55 54 53 53 50 48 44 39 38 42 43 42 44 50 57 59 58 58 56 52 50 47 44 42 40 38 39
74 75 74 72 69 65 63 62 61 60 57 54 50 46 42 40 38 37 34 33 35 33 30 30 31 33 34 35 35 36 37 37 36 36 37 40 42 43 43 42 42 43 43 45 49 49 45 47 52 52 51 53 55 57 59 60 59 58 57 56 54 54 51 47 44 39 36 39 43 45 46 50 54 57 58 58 58 57 55 51 46 43 42 41 39
74 75 72 70 68 65 63 62 60 58 56 54 50 44 40 37 36 34 32 33 34 32 30 32 34 35 36 37 38 39 40 40 38 38 40 43 45 45 44 44 45 45 45 47 51 48 45 49 53 52 53 55 56 59 60 60 61 59 59 57 56 57 55 51 42 35 34 37 41 45 47 49 51 54 57 57 57 59 57 50 46 44 43 42 40
73 74 73 69 67 64 62 61 59 56 54 51 47 42 38 35 34 33 32 33 33 32 32 34 36 37 38 38 39 41 41 41 41 41 43 45 46 46 45 46 47 47 47 48 51 49 47 49 51 52 55 56 57 59 59 59 60 60 59 59 58 59 58 56 45 33 33 36 39 43 45 48 50 52 54 55 55 57 57 51 46 45 43 43 43
71 73 72 69 66 63 61 59 57 55 51 47 44 40 37 34 33 33 32 33 33 33 34 37 38 39 39 40 40 42 43 43 43 44 45 47 47 47 46 48 49 49 49 49 51 51 49 49 50 52 54 55 56 58 58 58 59 60 61 61 60 60 59 59 50 35 32 35 38 40 43 46 49 52 54 54 55 55 54 52 48 46 44 43 45
69 70 69 66 63 60 58 56 54 54 49 44 41 39 36 33 34 34 33 33 35 35 37 39 40 41 42 42 43 44 44 44 44 45 46 48 50 50 49 51 52 52 53 52 52 52 52 52 53 54 53 53 55 56 56 56 57 60 60 61 61 61 60 60 55 43 36 34 36 38 41 44 48 54 55 52 54 55 53 53 51 48 46 43 42
66 66 66 63 60 57 55 53 51 51 48 43 39 37 35 34 35 34 34 35 37 37 39 42 42 44 44 45 46 45 46 46 46 46 48 50 52 53 53 54 56 55 55 54 52 52 53 56 56 57 56 54 55 55 55 54 56 60 60 61 61 62 60 59 58 53 45 36 35 37 40 43 46 54 57 54 54 56 56 56 55 51 46 45 43
64 63 62 60 58 56 54 52 49 49 48 44 39 36 35 35 35 34 36 38 39 39 41 43 45 46 47 47 48 47 48 48 49 50 52 55 57 57 57 58 59 58 57 54 53 54 55 58 58 56 55 54 53 53 54 54 57 61 62 60 61 62 61 58 59 59 54 45 38 36 37 39 43 50 54 55 55 57 58 57 55 49 43 44 47
60 59 59 58 56 56 53 51 48 47 47 44 40 37 36 35 35 36 39 41 40 40 42 44 46 47 47 48 47 47 49 49 49 51 53 55 57 59 59 60 60 60 58 55 54 56 58 59 57 54 52 50 51 52 53 55 56 60 62 61 60 61 61 61 61 61 59 53 46 40 38 38 40 44 48 52 54 56 55 51 49 45 42 44 48
56 55 56 56 54 55 53 50 47 46 44 41 40 38 37 35 36 38 41 42 41 41 43 45 45 46 48 47 47 47 48 48 48 49 51 53 55 58 59 58 59 59 57 56 55 57 58 56 54 52 51 50 52 53 54 56 56 56 59 61 61 61 61 62 65 65 62 58 53 48 42 40 39 40 45 50 50 51 49 45 43 43 43 44 47
54 53 53 54 53 54 53 50 47 44 41 39 38 39 38 36 37 40 42 43 42 42 44 44 44 46 47 47 47 47 47 46 47 49 50 52 53 56 57 56 57 57 56 55 55 54 54 53 53 51 51 51 51 53 55 57 57 57 59 61 62 63 62 62 64 65 65 61 57 54 49 44 42 41 44 46 46 48 45 40 39 41 43 43 46
52 51 51 51 52 52 51 48 46 43 40 38 38 39 38 37 38 40 42 43 43 44 43 43 43 45 47 46 45 45 45 45 46 48 48 49 50 53 55 55 55 54 53 52 54 54 53 53 52 50 49 51 53 56 58 60 61 61 64 64 63 64 64 64 64 65 65 63 61 59 55 50 45 43 45 43 42 44 42 39 38 41 45 45 45
50 49 50 50 50 51 50 46 45 43 40 39 38 39 39 38 39 41 42 43 44 44 43 43 44 45 44 43 43 43 43 42 44 46 46 46 46 47 50 51 52 52 51 51 53 54 51 49 46 44 46 51 55 57 55 55 57 59 61 63 62 62 63 65 66 67 66 64 63 63 61 57 52 47 45 43 43 44 40 38 41 42 45 45 42
48 48 49 49 48 49 47 44 44 43 41 39 38 38 39 39 40 41 41 43 43 43 42 43 43 43 42 42 43 42 40 40 42 42 41 42 41 42 46 48 49 49 47 47 48 46 42 39 37 38 42 46 49 49 47 45 47 48 50 54 56 55 56 60 65 69 68 66 64 63 64 62 60 55 50 48 47 45 40 37 42 43 43 46 41
46 46 47 47 47 47 46 45 45 43 42 39 38 38 40 40 40 42 42 42 42 41 41 41 41 42 42 42 42 41 38 38 38 37 37 38 38 39 43 45 46 46 42 40 39 36 34 33 34 38 41 42 43 44 42 40 40 40 43 46 46 46 46 49 56 63 67 68 66 65 65 65 66 63 57 54 48 45 42 39 42 44 46 49 45
45 45 45 45 46 47 46 46 45 44 43 41 40 40 40 40 41 41 41 41 41 40 40 40 41 42 42 41 41 39 36 36 35 34 35 36 36 37 39 41 42 41 38 36 35 33 33 34 36 39 42 42 42 43 41 40 40 39 42 42 39 38 38 40 44 50 58 63 64 65 66 68 70 69 68 64 57 50 46 42 42 47 49 50 47
45 45 44 44 45 47 46 46 45 44 44 43 43 42 41 40 40 40 40 40 40 40 40 40 41 41 42 41 41 38 35 36 35 35 36 35 35 35 36 39 39 38 37 36 35 35 36 38 38 39 42 41 40 39 39 42 43 40 39 38 36 35 34 35 36 39 47 54 57 61 63 66 69 71 76 73 68 59 49 47 46 47 48 48 49
44 44 43 43 44 45 45 45 44 43 43 44 45 44 43 41 39 39 40 41 41 41 41 41 41 42 43 42 40 37 36 37 37 38 38 36 36 35 35 37 39 38 36 36 37 39 39 39 39 39 40 39 39 39 38 41 43 40 37 37 36 33 33 33 34 35 40 45 50 54 57 60 64 68 74 74 74 67 56 52 50 51 48 44 48
43 43 42 42 42 42 43 43 41 41 41 43 44 44 43 42 40 40 41 41 41 42 42 42 42 43 44 42 39 37 38 39 40 41 40 39 39 38 37 37 38 38 37 38 39 39 39 38 38 39 38 39 42 42 41 40 39 38 37 37 36 34 33 32 32 33 35 39 42 46 49 54 59 64 69 72 75 72 66 55 50 56 53 48 50
41 41 41 42 41 41 41 41 39 39 40 41 42 42 41 41 41 41 40 41 41 42 42 42 42 43 43 41 39 38 39 41 42 41 39 39 41 41 41 39 39 40 39 39 39 39 39 40 41 41 40 42 44 44 43 41 38 38 38 37 37 36 35 33 32 31 31 34 37 39 43 46 51 59 63 67 72 73 74 64 53 55 52 53 53
38 40 40 41 40 39 39 39 38 38 38 39 40 39 39 40 40 39 38 39 40 40 40 41 42 42 43 42 40 39 41 42 42 41 39 39 41 42 43 43 42 41 40 39 40 41 42 43 43 44 42 44 46 46 45 42 38 38 38 38 38 37 37 34 32 31 30 30 32 34 40 45 47 52 58 62 66 68 72 70 61 56 52 53 52
36 38 38 38 36 35 36 37 37 37 36 37 38 37 36 37 37 36 36 37 39 39 40 41 41 42 44 44 42 42 43 42 42 42 42 41 43 44 43 44 43 42 41 42 44 43 45 46 46 46 46 46 47 48 47 43 39 39 38 37 37 38 36 31 29 30 28 27 27 29 35 45 50 50 54 58 61 63 64 66 63 60 59 56 52
33 36 37 36 33 33 34 35 35 35 35 35 36 35 33 34 34 34 34 36 38 39 40 41 41 42 43 42 42 43 44 42 42 44 44 44 46 47 45 45 45 45 45 45 46 46 46 47 47 48 48 48 48 49 48 43 39 39 38 36 36 36 34 29 27 26 27 26 26 28 28 38 53 53 51 55 57 60 61 61 61 60 61 58 54
31 34 36 35 32 32 33 34 34 33 33 33 33 33 32 32 33 33 34 36 38 39 40 41 41 40 41 41 42 45 45 43 44 45 45 45 46 48 47 46 47 48 47 47 46 46 46 47 47 48 49 48 48 48 49 46 40 38 37 36 35 34 33 28 25 24 27 28 27 28 26 34 52 52 50 55 56 58 60 60 60 61 61 56 53
31 32 34 33 32 32 33 33 32 32 32 32 32 32 31 31 32 33 34 36 37 38 40 40 40 40 40 42 44 46 46 45 46 47 47 46 46 49 49 47 47 48 48 49 48 47 47 47 46 48 49 48 50 50 49 48 43 38 36 35 35 34 33 29 24 22 25 30 29 28 27 32 43 45 49 55 55 57 59 59 60 61 63 60 54
30 31 31 31 32 33 32 32 32 32 32 32 32 32 31 31 32 33 34 36 36 37 39 40 40 40 41 44 45 47 47 47 48 47 47 48 48 49 49 48 47 47 47 49 48 46 46 47 46 47 48 47 51 51 49 50 46 41 38 34 34 34 34 30 25 21 22 29 31 28 27 29 34 40 48 52 54 56 58 58 59 60 63 64 60
30 31 29 30 32 33 33 32 32 32 32 32 32 32 31 32 33 35 35 36 36 37 38 39 39 40 41 43 45 47 48 48 48 47 47 48 48 48 48 47 47 46 47 49 49 47 46 47 47 46 46 45 47 48 49 50 46 44 40 35 33 33 34 31 25 21 20 26 31 29 27 28 31 36 44 47 50 52 56 60 59 59 61 63 64
29 29 29 30 32 33 33 32 31 31 32 31 32 32 31 32 33 35 36 36 36 37 39 39 39 39 40 41 41 43 46 47 47 47 46 47 47 47 48 47 47 47 48 50 51 51 50 49 47 45 43 43 44 46 48 47 45 45 42 36 32 31 31 28 24 20 19 24 30 29 27 30 30 33 41 43 47 52 55 59 58 57 60 61 62
28 29 29 30 31 31 31 31 30 29 30 30 31 31 31 32 33 34 37 37 38 38 39 39 39 39 39 39 38 39 43 44 44 45 44 45 45 45 45 45 46 47 47 49 51 51 52 50 48 44 42 42 43 45 45 43 44 44 41 36 33 31 29 25 22 20 19 22 27 28 27 30 31 32 38 41 50 57 55 54 53 53 57 58 58
28 29 30 30 30 29 28 28 28 27 28 28 29 30 30 31 32 34 35 37 37 38 38 39 39 39 39 39 37 37 41 42 42 42 41 41 41 40 41 42 44 46 46 48 50 50 51 51 48 45 43 43 43 42 41 38 39 40 35 33 34 31 26 23 21 19 20 20 24 30 29 29 32 32 34 36 46 54 53 53 54 53 54 54 55
28 29 31 30 28 27 26 26 26 26 26 27 27 28 28 29 31 32 33 34 35 36 37 38 39 39 39 40 39 38 39 41 41 40 40 39 39 40 39 41 44 46 46 46 47 48 50 49 46 44 41 39 36 36 37 35 34 35 31 30 32 28 23 22 21 19 21 21 23 31 32 29 31 32 31 32 38 46 49 51 54 55 55 52 53
27 29 31 30 29 27 25 25 26 26 26 26 27 28 28 29 30 31 31 32 33 34 35 37 38 39 40 40 40 40 40 41 41 40 40 41 41 41 41 44 46 46 46 44 44 45 47 45 41 39 35 32 31 31 34 34 31 30 28 28 27 25 22 21 20 20 22 22 25 31 33 31 31 31 31 31 33 39 43 45 49 52 54 53 53
27 29 30 29 28 26 25 25 25 26 26 27 28 29 28 28 28 29 30 31 32 32 34 36 38 40 40 41 42 43 43 42 42 43 44 44 45 45 47 49 49 47 46 44 43 44 43 40 36 34 32 31 32 31 33 34 31 28 26 25 24 23 22 20 20 22 22 23 26 30 32 32 32 31 31 31 31 34 36 39 42 45 50 52 52
27 28 28 28 27 26 24 24 25 26 26 27 28 29 29 29 28 28 28 29 31 32 33 35 37 39 40 42 43 44 44 44 46 47 48 48 48 49 52 54 52 50 48 45 44 41 38 35 33 33 33 33 34 34 34 33 32 29 25 24 23 22 22 20 20 22 23 24 26 28 30 30 31 32 32 32 32 33 34 35 38 41 46 48 49
26 27 28 28 28 27 25 25 25 25 25 27 28 29 29 28 27 26 25 27 29 31 32 33 35 36 38 40 42 44 45 46 48 50 50 50 50 51 54 55 54 51 48 45 41 37 34 33 33 33 35 36 36 37 37 36 35 31 28 25 23 23 22 21 22 23 24 26 25 25 27 28 28 29 32 33 34 35 36 36 37 39 42 44 46
24 25 26 26 26 25 25 26 25 25 25 26 26 26 26 26 25 24 24 24 26 29 30 30 32 33 35 38 41 43 45 46 48 50 51 52 51 52 54 54 53 50 45 41 37 34 34 35 36 38 40 41 42 43 43 40 36 31 28 27 25 24 24 24 26 26 26 27 26 25 26 27 25 26 29 31 33 35 37 39 38 39 40 41 43
24 24 24 24 23 23 24 24 24 24 23 22 22 22 22 23 23 22 23 24 25 27 27 28 30 31 34 37 40 41 42 44 46 48 51 53 53 53 54 53 52 47 42 37 34 34 37 39 41 44 46 47 49 49 46 43 39 35 32 30 27 25 26 27 28 28 28 29 29 28 29 29 26 25 26 27 28 30 33 37 40 40 41 42 42
23 23 23 22 21 21 21 21 22 21 19 18 19 19 20 21 22 22 24 25 26 26 26 27 29 30 32 35 37 38 39 42 44 46 50 52 53 54 54 54 51 44 37 35 35 37 40 42 44 48 51 52 54 52 50 49 48 46 43 38 32 28 27 28 29 29 30 30 30 31 32 31 28 27 26 25 25 26 28 32 36 36 36 38 39
22 22 22 22 22 21 20 20 19 18 17 17 18 19 20 21 22 24 25 26 27 27 28 29 30 30 31 32 33 35 37 39 42 45 49 52 53 54 55 54 48 40 36 36 38 40 43 45 50 54 56 57 56 54 53 55 54 53 51 47 41 35 31 30 30 30 30 31 31 31 31 28 27 27 26 25 24 23 24 26 29 29 29 31 33
23 22 22 22 22 21 20 18 17 18 18 17 17 19 21 23 24 26 27 27 28 28 28 28 29 29 29 29 29 31 34 37 40 44 47 50 54 55 55 51 44 39 39 39 40 44 47 52 55 57 57 56 54 52 53 56 57 56 54 51 48 44 40 37 35 33 31 30 30 30 29 27 26 28 28 28 27 26 25 25 26 27 27 27 29
22 21 21 21 21 20 19 18 17 17 18 18 18 19 21 24 25 26 27 27 26 26 26 26 27 28 27 26 26 28 32 35 39 42 45 50 53 54 53 47 40 40 42 43 45 49 53 56 57 57 57 53 48 46 48 50 54 56 55 52 51 49 47 44 42 40 37 34 32 31 29 27 27 29 31 31 30 29 29 29 28 28 27 26 26
21 20 21 20 20 20 19 19 17 17 17 17 18 19 21 22 23 23 24 24 24 24 25 26 26 28 28 27 27 28 31 35 37 39 43 48 52 53 51 44 40 41 43 45 49 53 56 57 57 57 55 47 39 38 41 41 44 47 50 50 51 50 48 47 45 44 43 42 40 36 34 31 28 28 31 33 34 34 33 34 34 32 29 27 26
19 19 19 19 19 20 20 20 19 18 18 17 18 19 20 20 20 21 21 23 23 23 24 26 26 28 30 30 30 30 31 33 35 37 42 46 49 50 49 43 41 43 45 48 52 55 57 57 57 56 51 42 35 35 38 39 40 40 41 43 45 46 46 46 46 45 44 44 44 43 41 39 35 32 32 34 36 37 37 37 37 35 34 32 30
16 17 18 19 19 19 20 20 20 19 19 19 19 19 19 19 19 19 21 22 22 22 24 26 26 27 29 30 31 30 30 32 34 37 41 43 45 47 47 43 41 43 46 49 53 55 57 57 55 53 48 42 39 39 42 43 43 42 41 41 42 42 42 43 44 45 44 43 42 41 40 40 40 39 38 37 38 38 38 39 38 38 39 39 38
15 16 15 16 17 18 19 19 19 19 19 20 20 20 19 19 19 19 20 20 21 23 24 25 26 26 26 28 30 29 29 31 33 36 39 41 43 45 47 42 40 44 47 49 54 55 55 54 51 50 47 44 43 43 45 46 45 43 44 44 44 43 42 42 43 44 46 46 44 41 38 37 38 40 41 41 42 42 42 44 45 46 47 48 47
16 15 14 14 16 17 18 19 19 19 19 20 20 20 20 19 19 19 19 19 20 22 23 23 24 24 24 25 28 29 29 30 32 36 38 40 41 43 45 42 40 45 48 50 53 53 52 51 48 47 44 41 42 44 44 45 45 45 44 44 45 44 44 44 43 44 46 48 48 46 42 39 39 40 41 42 43 43 44 46 48 49 50 49 49
20 19 17 16 15 16 17 17 18 18 19 19 20 20 21 20 20 18 18 18 19 21 21 21 22 22 22 22 23 27 29 30 32 35 38 39 39 41 43 40 41 47 48 49 50 50 50 50 48 46 41 38 42 44 44 44 46 46 46 45 45 45 44 44 46 46 47 48 48 48 46 45 45 44 43 43 44 44 45 47 49 51 50 48 47